| time (UTC) | temp F | wind direction | speed knots | gust knots | rain 1hr in | rain 24hr in | rain mn in | humidity % | barometer mb |
| 20260507174602 | 61 | 360 | 2.6 | 13.9 | 0.00 | 0.00 | 0.00 | 42 | 1012.6 |
| 20260507173055 | 62 | 360 | 0.9 | 9.6 | 0.00 | 0.00 | 0.00 | 46 | 1012.8 |
| 20260507171556 | 61 | 360 | 2.6 | 9.6 | 0.00 | 0.00 | 0.00 | 48 | 1012.9 |
| 20260507170059 | 62 | 360 | 1.7 | 5.2 | 0.00 | 0.00 | 0.00 | 50 | 1013.1 |
| 20260507164628 | 60 | 360 | 0.9 | 7.0 | 0.00 | 0.00 | 0.00 | 48 | 1013.2 |
| 20260507163103 | 60 | 360 | 1.7 | 5.2 | 0.00 | 0.00 | 0.00 | 50 | 1013.4 |
| 20260507161600 | 58 | 360 | 1.7 | 8.7 | 0.00 | 0.00 | 0.00 | 49 | 1013.4 |
| 20260507160057 | 59 | 360 | 1.7 | 8.7 | 0.00 | 0.00 | 0.00 | 48 | 1013.6 |
| 20260507154559 | 58 | 360 | 0.9 | 7.8 | 0.00 | 0.01 | 0.00 | 52 | 1013.6 |
| 20260507153056 | 59 | 360 | 1.7 | 7.0 | 0.00 | 0.01 | 0.00 | 49 | 1013.7 |
| 20260507151552 | 58 | 360 | 0.9 | 7.0 | 0.00 | 0.01 | 0.00 | 51 | 1013.7 |
| 20260507150054 | 58 | 360 | 1.7 | 7.0 | 0.00 | 0.01 | 0.00 | 52 | 1013.8 |
| 20260507144553 | 58 | 360 | 1.7 | 3.5 | 0.00 | 0.02 | 0.00 | 54 | 1013.9 |
| 20260507143051 | 57 | 360 | 1.7 | 4.3 | 0.00 | 0.02 | 0.00 | 59 | 1013.9 |
| 20260507141551 | 57 | 360 | 0.9 | 4.3 | 0.00 | 0.02 | 0.00 | 56 | 1014.1 |
| 20260507140053 | 56 | 360 | 2.6 | 4.3 | 0.00 | 0.02 | 0.00 | 55 | 1014.3 |
| 20260507134550 | 55 | 360 | 1.7 | 8.7 | 0.00 | 0.04 | 0.00 | 57 | 1014.5 |
| 20260507133053 | 55 | 360 | 1.7 | 3.5 | 0.00 | 0.04 | 0.00 | 63 | 1014.6 |
| 20260507131600 | 54 | 78 | 0.9 | 3.5 | 0.00 | 0.04 | 0.00 | 64 | 1014.8 |
| 20260507130055 | 52 | 0 | 0.0 | 2.6 | 0.00 | 0.04 | 0.00 | 73 | 1014.8 |
| 20260507124601 | 49 | 0 | 0.0 | 0.0 | 0.00 | 0.09 | 0.00 | 85 | 1014.7 |
| 20260507123051 | 48 | 0 | 0.0 | 0.0 | 0.00 | 0.09 | 0.00 | 92 | 1014.7 |
| 20260507121556 | 47 | 0 | 0.0 | 0.0 | 0.00 | 0.09 | 0.00 | 93 | 1014.7 |
| 20260507120054 | 46 | 0 | 0.0 | 0.0 | 0.00 | 0.09 | 0.00 | 93 | 1014.9 |
| 20260507114606 | 46 | 0 | 0.0 | 0.0 | 0.00 | 0.18 | 0.00 | 93 | 1014.8 |
| 20260507113119 | 45 | 0 | 0.0 | 0.0 | 0.00 | 0.18 | 0.00 | 93 | 1014.6 |
| 20260507111557 | 45 | 0 | 0.0 | 1.7 | 0.00 | 0.18 | 0.00 | 93 | 1014.3 |
| 20260507110056 | 45 | 0 | 0.0 | 0.9 | 0.00 | 0.18 | 0.00 | 92 | 1014.2 |
| 20260507104550 | 44 | 0 | 0.0 | 0.0 | 0.00 | 0.28 | 0.00 | 91 | 1014.0 |
| 20260507103054 | 44 | 0 | 0.0 | 0.0 | 0.00 | 0.28 | 0.00 | 91 | 1013.9 |
| 20260507101551 | 44 | 0 | 0.0 | 0.0 | 0.00 | 0.28 | 0.00 | 91 | 1013.7 |
| 20260507100057 | 45 | 0 | 0.0 | 0.0 | 0.00 | 0.28 | 0.00 | 90 | 1013.9 |
| 20260507094554 | 45 | 0 | 0.0 | 0.0 | 0.00 | 0.47 | 0.00 | 89 | 1013.9 |
| 20260507093054 | 45 | 0 | 0.0 | 0.0 | 0.00 | 0.47 | 0.00 | 88 | 1013.9 |
| 20260507091620 | 46 | 0 | 0.0 | 0.0 | 0.00 | 0.47 | 0.00 | 87 | 1013.7 |
| 20260507090052 | 47 | 0 | 0.0 | 0.0 | 0.00 | 0.47 | 0.00 | 87 | 1013.7 |
| 20260507084604 | 47 | 0 | 0.0 | 0.0 | 0.00 | 0.58 | 0.00 | 86 | 1013.6 |
| 20260507083111 | 48 | 0 | 0.0 | 0.0 | 0.00 | 0.58 | 0.00 | 87 | 1013.5 |
| 20260507081601 | 49 | 0 | 0.0 | 0.9 | 0.00 | 0.58 | 0.00 | 87 | 1013.7 |
| 20260507080105 | 49 | 0 | 0.0 | 0.0 | 0.00 | 0.58 | 0.00 | 86 | 1013.9 |
| 20260507074603 | 49 | 0 | 0.0 | 0.0 | 0.00 | 0.66 | 0.00 | 86 | 1013.9 |
| 20260507073055 | 50 | 0 | 0.0 | 0.0 | 0.00 | 0.66 | 0.00 | 84 | 1013.9 |
| 20260507071557 | 50 | 0 | 0.0 | 1.7 | 0.00 | 0.66 | 0.00 | 81 | 1013.9 |
| 20260507064555 | 50 | 0 | 0.0 | 0.0 | 0.00 | 0.72 | 0.00 | 79 | 1013.7 |
| 20260507063056 | 50 | 0 | 0.0 | 0.9 | 0.00 | 0.72 | 0.00 | 78 | 1013.8 |
| 20260507061552 | 50 | 0 | 0.0 | 3.5 | 0.00 | 0.72 | 0.00 | 78 | 1013.9 |
| 20260507060100 | 50 | 360 | 0.0 | 2.6 | 0.00 | 0.72 | 0.00 | 79 | 1014.0 |
| 20260507054551 | 50 | 0 | 0.0 | 3.5 | 0.00 | 0.73 | 0.00 | 81 | 1014.0 |
| 20260507053053 | 51 | 0 | 0.0 | 0.9 | 0.00 | 0.73 | 0.00 | 85 | 1014.1 |
| 20260507051552 | 51 | 0 | 0.0 | 1.7 | 0.00 | 0.73 | 0.00 | 85 | 1014.2 |
| 20260507050057 | 51 | 0 | 0.0 | 0.0 | 0.00 | 0.73 | 0.00 | 84 | 1014.2 |
| 20260507044606 | 51 | 0 | 0.0 | 0.0 | 0.00 | 0.74 | 0.00 | 83 | 1014.3 |
| 20260507043109 | 51 | 0 | 0.0 | 0.9 | 0.00 | 0.74 | 0.00 | 82 | 1014.2 |
| 20260507041557 | 51 | 0 | 0.0 | 1.7 | 0.00 | 0.74 | 0.00 | 81 | 1014.2 |
| 20260507040058 | 51 | 0 | 0.0 | 7.8 | 0.00 | 0.74 | 0.00 | 81 | 1014.3 |
| 20260507034554 | 52 | 0 | 0.0 | 4.3 | 0.00 | 0.76 | 0.74 | 84 | 1014.0 |
| 20260507033054 | 53 | 360 | 2.6 | 8.7 | 0.00 | 0.76 | 0.74 | 83 | 1014.0 |
| 20260507031552 | 53 | 360 | 2.6 | 7.8 | 0.00 | 0.76 | 0.74 | 88 | 1013.9 |
| 20260507030055 | 54 | 360 | 0.0 | 1.7 | 0.00 | 0.76 | 0.74 | 93 | 1013.8 |
| 20260507024556 | 54 | 0 | 0.0 | 1.7 | 0.00 | 0.76 | 0.74 | 93 | 1013.6 |
| 20260507023107 | 54 | 0 | 0.0 | 1.7 | 0.00 | 0.76 | 0.74 | 93 | 1013.8 |
| 20260507021556 | 54 | 0 | 0.0 | 1.7 | 0.00 | 0.76 | 0.74 | 93 | 1013.7 |
| 20260507014555 | 54 | 360 | 0.0 | 2.6 | 0.00 | 0.76 | 0.74 | 93 | 1013.1 |
| 20260507013054 | 54 | 360 | 0.0 | 0.9 | 0.00 | 0.76 | 0.74 | 93 | 1012.7 |
| 20260507011555 | 54 | 360 | 0.0 | 0.9 | 0.00 | 0.76 | 0.74 | 92 | 1012.9 |
| 20260507010055 | 54 | 0 | 0.0 | 0.9 | 0.00 | 0.76 | 0.74 | 92 | 1012.6 |
| 20260507004552 | 55 | 0 | 0.0 | 0.0 | 0.00 | 0.76 | 0.74 | 92 | 1012.7 |
| 20260507003106 | 55 | 0 | 0.0 | 0.9 | 0.00 | 0.76 | 0.74 | 92 | 1012.5 |
| 20260507001611 | 55 | 0 | 0.0 | 1.7 | 0.00 | 0.76 | 0.74 | 91 | 1012.4 |
| 20260507000056 | 55 | 0 | 0.0 | 0.9 | 0.00 | 0.76 | 0.74 | 91 | 1012.7 |
| 20260506234555 | 55 | 360 | 0.0 | 0.9 | 0.00 | 0.76 | 0.74 | 90 | 1012.1 |
| 20260506233058 | 56 | 0 | 0.0 | 0.9 | 0.00 | 0.76 | 0.74 | 90 | 1011.9 |
| 20260506231734 | 56 | 0 | 0.0 | 1.7 | 0.00 | 0.76 | 0.74 | 90 | 1012.7 |
| 20260506230112 | 56 | 0 | 0.0 | 0.9 | 0.00 | 0.76 | 0.74 | 89 | 1012.5 |
| 20260506224551 | 56 | 0 | 0.0 | 0.9 | 0.00 | 0.76 | 0.74 | 89 | 1012.6 |
| 20260506223052 | 56 | 0 | 0.0 | 0.9 | 0.00 | 0.76 | 0.74 | 88 | 1012.3 |
| 20260506221605 | 56 | 360 | 0.0 | 0.9 | 0.00 | 0.76 | 0.74 | 87 | 1012.5 |
| 20260506220056 | 56 | 0 | 0.0 | 1.7 | 0.00 | 0.76 | 0.74 | 86 | 1012.3 |
| 20260506214556 | 57 | 360 | 0.0 | 1.7 | 0.00 | 0.76 | 0.74 | 87 | 1012.0 |
| 20260506213051 | 56 | 360 | 0.0 | 2.6 | 0.00 | 0.76 | 0.74 | 87 | 1012.1 |
| 20260506211555 | 56 | 0 | 0.0 | 3.5 | 0.00 | 0.76 | 0.74 | 87 | 1012.1 |
| 20260506210057 | 56 | 360 | 0.9 | 2.6 | 0.00 | 0.76 | 0.74 | 88 | 1012.0 |
| 20260506204558 | 56 | 360 | 0.0 | 0.9 | 0.00 | 0.76 | 0.74 | 87 | 1012.1 |
| 20260506203119 | 56 | 0 | 0.0 | 1.7 | 0.00 | 0.76 | 0.74 | 86 | 1012.2 |
| 20260506201556 | 56 | 0 | 0.0 | 2.6 | 0.00 | 0.76 | 0.74 | 87 | 1011.8 |
| 20260506194554 | 55 | 360 | 0.0 | 3.5 | 0.00 | 0.76 | 0.74 | 86 | 1011.8 |
| 20260506193104 | 54 | 360 | 0.9 | 2.6 | 0.00 | 0.76 | 0.74 | 88 | 1011.8 |
| 20260506191556 | 54 | 360 | 0.0 | 2.6 | 0.00 | 0.76 | 0.74 | 89 | 1011.8 |
| 20260506190058 | 54 | 360 | 0.0 | 4.3 | 0.00 | 0.76 | 0.74 | 89 | 1011.7 |
| 20260506184553 | 54 | 0 | 0.0 | 3.5 | 0.00 | 0.76 | 0.74 | 90 | 1011.8 |
| 20260506183053 | 54 | 360 | 1.7 | 4.3 | 0.00 | 0.76 | 0.74 | 89 | 1011.6 |
| 20260506181556 | 54 | 360 | 1.7 | 7.8 | 0.00 | 0.76 | 0.74 | 89 | 1011.7 |
| 20260506180055 | 54 | 360 | 1.7 | 7.0 | 0.00 | 0.76 | 0.74 | 90 | 1011.7 |